Location: Unspecified
(43.4354°N, 0.0000°E)
Time: 21:15:46
(UTC+00:00)

Vanguard 2 Rocket - Pass Details

Date: 19 June 2019
Orbit: 553 x 3327 km, 32.9° (Epoch: 21 October)

Event Time Altitude Azimuth Distance (km) Brightness Sun altitude
Rises 21:14:59 0° 216° (SW) 4,023 10.1 -13.0°
Reaches altitude 10° 21:17:41 10° 205° (SSW) 3,373 9.5 -13.3°
Maximum altitude 21:25:20 32° 146° (SE) 2,862 8.8 -14.1°
Drops below altitude 10° 21:37:21 10° 92° (E) 5,364 10.5 -15.4°
Sets 21:42:59 0° 84° (E) 6,772 11.1 -16.0°
